Location: ???????????
(55.5758°N, 38.4970°E)
Time: 18:25:34
(UTC+00:00)

Cosmos 1954 Rocket - Pass Details

Date: 15 November 2025
Orbit: 749 x 776 km, 74.0° (Epoch: 14 December)

Event Time Altitude Azimuth Distance (km) Brightness Sun altitude
Exits shadow 02:07:38 64° 235° (SW) 837 3.9 -24.0°
Drops below altitude 10° 02:12:32 10° 167° (SSE) 2,270 6.6 -23.3°
Sets 02:14:54 0° 165° (SSE) 3,188 7.4 -23.0°
